DAL2560 KMCO-KDTW

Flight info

Callsign DAL2560
Flight time 2h 13m
Altitude 34000
Route JEEMY4 PAINN SHRKS Q77 WIGVO IRQ BURGG HNN SUBWY HTROD2
Aircraft B752/M-SDE3FGHIM3RWXY/LB1

Departure

Time 2026-04-23 15:53
Airport Orlando International Airport (KMCO)

Arrival

Time 2026-04-23 18:06
Airport Detroit Metropolitan Wayne County Airport (KDTW)
Time Latitude Longitude Altitude Speed Heading
2026-04-23 15:40 28.42874 -81.29993 90 ft 0 kts 258°
2026-04-23 15:44 28.42874 -81.29991 90 ft 1 kts 258°
2026-04-23 15:44 28.42877 -81.29974 90 ft 2 kts 258°
2026-04-23 15:45 28.42880 -81.29958 90 ft 2 kts 258°
2026-04-23 15:45 28.42883 -81.29941 91 ft 2 kts 258°
2026-04-23 15:45 28.42886 -81.29923 91 ft 2 kts 258°
2026-04-23 15:45 28.42891 -81.29906 91 ft 2 kts 232°
2026-04-23 15:46 28.42902 -81.29897 91 ft 2 kts 195°
2026-04-23 15:46 28.42917 -81.29897 92 ft 2 kts 158°
2026-04-23 15:46 28.42929 -81.29907 92 ft 1 kts 120°
2026-04-23 15:46 28.42936 -81.29922 92 ft 2 kts 123°
2026-04-23 15:47 28.42941 -81.29931 92 ft 0 kts 125°
2026-04-23 15:47 28.42942 -81.29932 92 ft 0 kts 125°
2026-04-23 15:49 28.42941 -81.29930 92 ft 1 kts 125°
2026-04-23 15:49 28.42916 -81.29877 92 ft 13 kts 104°
2026-04-23 15:49 28.42910 -81.29758 92 ft 15 kts 84°
2026-04-23 15:49 28.42985 -81.29704 92 ft 13 kts 358°
2026-04-23 15:50 28.43073 -81.29707 92 ft 12 kts 359°
2026-04-23 15:50 28.43162 -81.29708 92 ft 12 kts 359°
2026-04-23 15:50 28.43249 -81.29709 92 ft 12 kts 359°
2026-04-23 15:50 28.43337 -81.29710 92 ft 12 kts 359°
2026-04-23 15:51 28.43427 -81.29710 92 ft 12 kts 359°
2026-04-23 15:51 28.43515 -81.29710 92 ft 12 kts 12°
2026-04-23 15:51 28.43551 -81.29639 92 ft 11 kts 91°
2026-04-23 15:51 28.43495 -81.29588 92 ft 15 kts 178°
2026-04-23 15:52 28.43272 -81.29587 93 ft 56 kts 179°
2026-04-23 15:52 28.42686 -81.29579 90 ft 112 kts 179°
2026-04-23 15:52 28.41722 -81.29568 91 ft 163 kts 179°
2026-04-23 15:52 28.40503 -81.29547 440 ft 179 kts 179°
2026-04-23 15:53 28.39224 -81.29512 1036 ft 190 kts 174°
2026-04-23 15:53 28.37962 -81.29041 1699 ft 196 kts 150°
2026-04-23 15:53 28.36780 -81.28235 2259 ft 204 kts 146°
2026-04-23 15:53 28.35499 -81.27291 2435 ft 236 kts 145°
2026-04-23 15:54 28.34251 -81.26053 3113 ft 244 kts 132°
2026-04-23 15:54 28.33072 -81.24609 3618 ft 262 kts 131°
2026-04-23 15:54 28.31788 -81.23051 4319 ft 273 kts 132°
2026-04-23 15:54 28.30649 -81.21356 5191 ft 272 kts 113°
2026-04-23 15:55 28.30279 -81.19295 5991 ft 273 kts 85°
2026-04-23 15:55 28.30820 -81.17277 6756 ft 276 kts 58°
2026-04-23 15:55 28.32181 -81.15736 7494 ft 282 kts 31°
2026-04-23 15:55 28.34055 -81.15076 8249 ft 288 kts
2026-04-23 15:56 28.36004 -81.15445 8987 ft 294 kts 338°
2026-04-23 15:56 28.37861 -81.16465 9754 ft 298 kts 338°
2026-04-23 15:56 28.39828 -81.17266 10448 ft 304 kts 343°
2026-04-23 15:56 28.41874 -81.18082 10795 ft 324 kts 341°
2026-04-23 15:57 28.44076 -81.19006 11168 ft 343 kts 340°
2026-04-23 15:57 28.46370 -81.19983 11513 ft 363 kts 340°
2026-04-23 15:57 28.48776 -81.21018 11929 ft 378 kts 339°
2026-04-23 15:57 28.51260 -81.22091 12722 ft 381 kts 339°
2026-04-23 15:58 28.53732 -81.23161 13402 ft 386 kts 339°
2026-04-23 15:58 28.56251 -81.24255 14090 ft 390 kts 339°
2026-04-23 15:58 28.58797 -81.25362 14741 ft 394 kts 339°
2026-04-23 15:58 28.61380 -81.26485 15436 ft 396 kts 338°
2026-04-23 15:59 28.63947 -81.27602 16097 ft 398 kts 338°
2026-04-23 15:59 28.66511 -81.28719 16741 ft 400 kts 338°
2026-04-23 15:59 28.69139 -81.29864 17378 ft 402 kts 338°
2026-04-23 15:59 28.71732 -81.30995 17988 ft 404 kts 337°
2026-04-23 16:00 28.74361 -81.32142 18599 ft 406 kts 337°
2026-04-23 16:00 28.76992 -81.33290 19206 ft 408 kts 337°
2026-04-23 16:00 28.79659 -81.34454 19815 ft 410 kts 337°
2026-04-23 16:00 28.82318 -81.35617 20344 ft 413 kts 337°
2026-04-23 16:01 28.85028 -81.36802 20864 ft 417 kts 337°
2026-04-23 16:01 28.87738 -81.37989 21366 ft 420 kts 337°
2026-04-23 16:01 28.90488 -81.39191 21862 ft 423 kts 336°
2026-04-23 16:01 28.93231 -81.40384 22330 ft 426 kts 338°
2026-04-23 16:02 28.96113 -81.41254 22772 ft 433 kts 348°
2026-04-23 16:02 28.99136 -81.41660 23229 ft 437 kts 352°
2026-04-23 16:02 29.02188 -81.42021 23682 ft 440 kts 352°
2026-04-23 16:02 29.05238 -81.42372 24131 ft 443 kts 352°
2026-04-23 16:03 29.08284 -81.42718 24572 ft 446 kts 352°
2026-04-23 16:03 29.11416 -81.43048 25012 ft 449 kts 353°
2026-04-23 16:03 29.14545 -81.43345 25441 ft 452 kts 353°
2026-04-23 16:03 29.17697 -81.43645 25882 ft 455 kts 353°
2026-04-23 16:04 29.20825 -81.43943 26310 ft 458 kts 353°
2026-04-23 16:04 29.24038 -81.44249 26737 ft 461 kts 353°
2026-04-23 16:04 29.27237 -81.44553 27147 ft 463 kts 353°
2026-04-23 16:04 29.30466 -81.44861 27541 ft 466 kts 353°
2026-04-23 16:05 29.32625 -81.45066 27798 ft 467 kts 353°
2026-04-23 16:05 29.36947 -81.45478 28297 ft 470 kts 353°
2026-04-23 16:05 29.40202 -81.45789 28659 ft 473 kts 353°
2026-04-23 16:05 29.43498 -81.46103 29013 ft 475 kts 353°
2026-04-23 16:06 29.46789 -81.46417 29364 ft 477 kts 354°
2026-04-23 16:06 29.50106 -81.46734 29801 ft 477 kts 354°
2026-04-23 16:06 29.53406 -81.47048 30288 ft 476 kts 354°
2026-04-23 16:06 29.56694 -81.47362 30758 ft 475 kts 354°
2026-04-23 16:07 29.60016 -81.47671 31225 ft 473 kts 354°
2026-04-23 16:07 29.63250 -81.47963 31660 ft 472 kts 354°
2026-04-23 16:07 29.66567 -81.48264 32102 ft 471 kts 354°
2026-04-23 16:07 29.69807 -81.48556 32547 ft 469 kts 354°
2026-04-23 16:08 29.73052 -81.48851 32995 ft 468 kts 354°
2026-04-23 16:08 29.76325 -81.49149 33448 ft 466 kts 354°
2026-04-23 16:08 29.79555 -81.49442 33899 ft 465 kts 354°
2026-04-23 16:08 29.82771 -81.49734 34228 ft 462 kts 354°
2026-04-23 16:09 29.85993 -81.50028 34256 ft 462 kts 354°
2026-04-23 16:09 29.92256 -81.51527 34270 ft 455 kts 341°
2026-04-23 16:10 29.98285 -81.53633 34190 ft 452 kts 341°
2026-04-23 16:10 30.04332 -81.55776 34191 ft 455 kts 341°
2026-04-23 16:11 30.10377 -81.57932 34186 ft 454 kts 341°
2026-04-23 16:11 30.16426 -81.60097 34189 ft 454 kts 342°
2026-04-23 16:12 30.22444 -81.62255 34193 ft 454 kts 342°
2026-04-23 16:12 30.28489 -81.64426 34191 ft 454 kts 342°
2026-04-23 16:13 30.34504 -81.66591 34193 ft 454 kts 341°
2026-04-23 16:13 30.43566 -81.69855 34192 ft 454 kts 341°
2026-04-23 16:14 30.49590 -81.72030 34187 ft 454 kts 341°
2026-04-23 16:14 30.55602 -81.74203 34181 ft 454 kts 341°
2026-04-23 16:15 30.61629 -81.76354 34176 ft 454 kts 344°
2026-04-23 16:15 30.67875 -81.77715 34176 ft 454 kts 348°
2026-04-23 16:16 30.74060 -81.78972 34178 ft 454 kts 348°
2026-04-23 16:16 30.80320 -81.80232 34179 ft 454 kts 348°
2026-04-23 16:17 30.86553 -81.81484 34180 ft 454 kts 349°
2026-04-23 16:17 30.92740 -81.82727 34182 ft 453 kts 349°
2026-04-23 16:18 30.98979 -81.83981 34185 ft 454 kts 349°
2026-04-23 16:18 31.05218 -81.85237 34187 ft 454 kts 349°
2026-04-23 16:19 31.11418 -81.86487 34189 ft 454 kts 349°
2026-04-23 16:19 31.17640 -81.87742 34190 ft 454 kts 349°
2026-04-23 16:20 31.23867 -81.89000 34191 ft 453 kts 349°
2026-04-23 16:20 31.30071 -81.90255 34191 ft 453 kts 349°
2026-04-23 16:21 31.36302 -81.91518 34190 ft 453 kts 349°
2026-04-23 16:21 31.42512 -81.92777 34189 ft 453 kts 349°
2026-04-23 16:22 31.48739 -81.94042 34192 ft 453 kts 349°
2026-04-23 16:22 31.54950 -81.95306 34196 ft 453 kts 349°
2026-04-23 16:23 31.61152 -81.96569 34198 ft 454 kts 349°
2026-04-23 16:23 31.67385 -81.97841 34200 ft 454 kts 349°
2026-04-23 16:24 31.73597 -81.99110 34198 ft 454 kts 349°
2026-04-23 16:24 31.79812 -82.00380 34195 ft 454 kts 349°
2026-04-23 16:25 31.86027 -82.01614 34189 ft 454 kts 353°
2026-04-23 16:25 31.92341 -82.01953 34184 ft 456 kts 357°
2026-04-23 16:26 31.98704 -82.02193 34172 ft 456 kts 357°
2026-04-23 16:26 32.05079 -82.02422 34185 ft 465 kts 357°
2026-04-23 16:27 32.08326 -82.02535 34538 ft 465 kts 357°
2026-04-23 16:27 32.11541 -82.02647 34911 ft 464 kts 357°
2026-04-23 16:27 32.14770 -82.02760 35297 ft 464 kts 357°
2026-04-23 16:27 32.18023 -82.02872 35807 ft 462 kts 357°
2026-04-23 16:28 32.21209 -82.02983 36275 ft 460 kts 357°
2026-04-23 16:28 32.24413 -82.03095 36696 ft 459 kts 357°
2026-04-23 16:28 32.27610 -82.03205 37112 ft 459 kts 357°
2026-04-23 16:28 32.30768 -82.03315 37558 ft 458 kts 357°
2026-04-23 16:29 32.33941 -82.03425 37984 ft 457 kts 358°
2026-04-23 16:29 32.37141 -82.03536 38245 ft 454 kts 358°
2026-04-23 16:29 32.43447 -82.03755 38214 ft 451 kts 358°
2026-04-23 16:30 32.49686 -82.04212 38214 ft 448 kts 354°
2026-04-23 16:30 32.55897 -82.04826 38131 ft 446 kts 355°
2026-04-23 16:31 32.62076 -82.05432 38126 ft 447 kts 355°
2026-04-23 16:31 32.68289 -82.06042 38156 ft 449 kts 355°
2026-04-23 16:32 32.74490 -82.06651 38156 ft 448 kts 355°
2026-04-23 16:32 32.80721 -82.07262 38153 ft 447 kts 355°
2026-04-23 16:33 32.86932 -82.07873 38151 ft 448 kts 355°
2026-04-23 16:33 32.93157 -82.08487 38148 ft 448 kts 355°
2026-04-23 16:34 32.99350 -82.09098 38150 ft 448 kts 354°
2026-04-23 16:34 33.05554 -82.09712 38152 ft 448 kts 354°
2026-04-23 16:35 33.11781 -82.10327 38158 ft 448 kts 354°
2026-04-23 16:35 33.17980 -82.10941 38161 ft 448 kts 354°
2026-04-23 16:36 33.24182 -82.11556 38160 ft 447 kts 354°
2026-04-23 16:36 33.30390 -82.12172 38157 ft 447 kts 354°
2026-04-23 16:37 33.36594 -82.12789 38155 ft 447 kts 354°
2026-04-23 16:37 33.42792 -82.13407 38152 ft 447 kts 354°
2026-04-23 16:38 33.48965 -82.14024 38151 ft 446 kts 354°
2026-04-23 16:38 33.55178 -82.14645 38152 ft 446 kts 354°
2026-04-23 16:39 33.61336 -82.15261 38159 ft 446 kts 354°
2026-04-23 16:39 33.67540 -82.15883 38164 ft 446 kts 354°
2026-04-23 16:40 33.73732 -82.15615 38176 ft 448 kts
2026-04-23 16:40 33.79916 -82.14575 38169 ft 448 kts
2026-04-23 16:41 33.86083 -82.13516 38172 ft 447 kts
2026-04-23 16:41 33.92247 -82.12444 38171 ft 447 kts
2026-04-23 16:42 33.98398 -82.11366 38167 ft 447 kts
2026-04-23 16:42 34.04575 -82.10282 38162 ft 448 kts
2026-04-23 16:43 34.10720 -82.09200 38161 ft 448 kts
2026-04-23 16:43 34.16879 -82.08115 38163 ft 448 kts
2026-04-23 16:44 34.23039 -82.07027 38161 ft 447 kts
2026-04-23 16:44 34.29207 -82.05936 38160 ft 448 kts
2026-04-23 16:45 34.35406 -82.04839 38162 ft 452 kts
2026-04-23 16:45 34.41620 -82.03737 38161 ft 454 kts
2026-04-23 16:46 34.47903 -82.02620 38156 ft 453 kts
2026-04-23 16:46 34.54134 -82.01511 38150 ft 453 kts
2026-04-23 16:47 34.60370 -82.00400 38143 ft 452 kts
2026-04-23 16:47 34.66562 -81.99295 38139 ft 452 kts
2026-04-23 16:48 34.72786 -81.98183 38144 ft 452 kts
2026-04-23 16:48 34.79011 -81.97069 38155 ft 452 kts
2026-04-23 16:49 34.85220 -81.95956 38156 ft 451 kts
2026-04-23 16:49 34.91446 -81.94838 38149 ft 450 kts
2026-04-23 16:50 34.97627 -81.93726 38144 ft 451 kts
2026-04-23 16:50 35.03830 -81.92798 38142 ft 448 kts 359°
2026-04-23 16:51 35.10059 -81.92897 38134 ft 448 kts 358°
2026-04-23 16:51 35.16301 -81.93034 38136 ft 447 kts 357°
2026-04-23 16:52 35.22505 -81.93183 38138 ft 447 kts 357°
2026-04-23 16:52 35.28730 -81.93340 38142 ft 447 kts 357°
2026-04-23 16:53 35.34937 -81.93497 38148 ft 447 kts 357°
2026-04-23 16:53 35.41143 -81.93655 38155 ft 446 kts 357°
2026-04-23 16:54 35.47345 -81.93815 38163 ft 446 kts 357°
2026-04-23 16:54 35.53536 -81.93973 38169 ft 446 kts 357°
2026-04-23 16:55 35.59723 -81.94133 38173 ft 446 kts 357°
2026-04-23 16:55 35.65943 -81.94294 38176 ft 446 kts 357°
2026-04-23 16:56 35.72131 -81.94453 38182 ft 445 kts 357°
2026-04-23 16:56 35.78319 -81.94614 38193 ft 445 kts 357°
2026-04-23 16:57 35.84517 -81.94774 38342 ft 448 kts 357°
2026-04-23 16:57 35.87626 -81.94855 38651 ft 447 kts 357°
2026-04-23 16:57 35.90740 -81.94936 38882 ft 448 kts 357°
2026-04-23 16:58 35.93870 -81.95017 39134 ft 447 kts 357°
2026-04-23 16:58 35.96954 -81.95097 39359 ft 448 kts 357°
2026-04-23 16:58 36.00078 -81.95179 39595 ft 448 kts 357°
2026-04-23 16:58 36.03180 -81.95260 39874 ft 447 kts 357°
2026-04-23 16:59 36.06273 -81.95340 40148 ft 446 kts 357°
2026-04-23 16:59 36.09376 -81.95420 40334 ft 440 kts 357°
2026-04-23 16:59 36.15508 -81.95581 40297 ft 442 kts 357°
2026-04-23 17:00 36.21711 -81.95744 40265 ft 448 kts 357°
2026-04-23 17:00 36.27951 -81.95908 40226 ft 446 kts 357°
2026-04-23 17:01 36.34134 -81.96070 40253 ft 446 kts 357°
2026-04-23 17:01 36.40331 -81.96233 40272 ft 447 kts 357°
2026-04-23 17:02 36.46569 -81.96397 40218 ft 446 kts 357°
2026-04-23 17:02 36.52736 -81.96560 40164 ft 445 kts 357°
2026-04-23 17:03 36.58909 -81.96723 40241 ft 445 kts 357°
2026-04-23 17:03 36.65124 -81.96887 40239 ft 447 kts 357°
2026-04-23 17:04 36.71331 -81.97052 40211 ft 444 kts 357°
2026-04-23 17:04 36.77504 -81.97216 40185 ft 444 kts 357°
2026-04-23 17:05 36.83700 -81.97381 40183 ft 445 kts 357°
2026-04-23 17:05 36.89864 -81.97545 40183 ft 444 kts 357°
2026-04-23 17:06 36.96034 -81.97710 40184 ft 444 kts 357°
2026-04-23 17:06 37.02218 -81.97875 40181 ft 443 kts 357°
2026-04-23 17:07 37.08347 -81.98039 40166 ft 443 kts 357°
2026-04-23 17:07 37.14533 -81.98205 40161 ft 443 kts 357°
2026-04-23 17:08 37.20684 -81.98370 40160 ft 443 kts 357°
2026-04-23 17:08 37.26856 -81.98536 40161 ft 443 kts 357°
2026-04-23 17:09 37.33014 -81.98701 40153 ft 443 kts 357°
2026-04-23 17:09 37.39181 -81.98868 40143 ft 443 kts 357°
2026-04-23 17:10 37.45332 -81.99034 40136 ft 442 kts 357°
2026-04-23 17:10 37.51482 -81.99200 40127 ft 442 kts 357°
2026-04-23 17:11 37.57619 -81.99367 40116 ft 443 kts 357°
2026-04-23 17:11 37.63764 -81.99534 40109 ft 443 kts 357°
2026-04-23 17:12 37.69937 -81.99702 40114 ft 443 kts 357°
2026-04-23 17:12 37.76120 -81.99870 40118 ft 443 kts 357°
2026-04-23 17:13 37.82251 -82.00038 40118 ft 443 kts 357°
2026-04-23 17:13 37.88411 -82.00206 40116 ft 443 kts 357°
2026-04-23 17:14 37.94589 -82.00375 40114 ft 443 kts 357°
2026-04-23 17:14 38.00711 -82.00543 40113 ft 443 kts 357°
2026-04-23 17:15 38.06865 -82.00713 40110 ft 443 kts 357°
2026-04-23 17:15 38.13027 -82.00882 40112 ft 443 kts 357°
2026-04-23 17:16 38.19179 -82.01052 40106 ft 443 kts 357°
2026-04-23 17:16 38.25343 -82.01221 40100 ft 443 kts 357°
2026-04-23 17:17 38.31515 -82.01393 40094 ft 443 kts 357°
2026-04-23 17:17 38.37652 -82.01563 40090 ft 443 kts 357°
2026-04-23 17:18 38.46881 -82.01820 40097 ft 443 kts 357°
2026-04-23 17:19 38.53058 -82.01991 40097 ft 443 kts 357°
2026-04-23 17:19 38.59201 -82.02163 40097 ft 442 kts 357°
2026-04-23 17:20 38.65374 -82.02335 40100 ft 442 kts 357°
2026-04-23 17:21 38.77646 -82.02982 40108 ft 441 kts 351°
2026-04-23 17:21 38.86747 -82.04400 40097 ft 440 kts 352°
2026-04-23 17:22 38.95825 -82.05824 40091 ft 440 kts 351°
2026-04-23 17:23 39.04954 -82.07265 40087 ft 439 kts 351°
2026-04-23 17:24 39.14021 -82.08700 40094 ft 439 kts 351°
2026-04-23 17:24 39.23104 -82.10142 40094 ft 439 kts 351°
2026-04-23 17:25 39.32169 -82.11584 40092 ft 438 kts 351°
2026-04-23 17:26 39.44247 -82.13512 40089 ft 438 kts 351°
2026-04-23 17:27 39.53266 -82.14957 40088 ft 437 kts 351°
2026-04-23 17:27 39.59304 -82.15926 40090 ft 436 kts 351°
2026-04-23 17:28 39.65320 -82.16893 40092 ft 436 kts 351°
2026-04-23 17:28 39.71344 -82.17863 40092 ft 436 kts 351°
2026-04-23 17:29 39.77359 -82.18833 40086 ft 435 kts 351°
2026-04-23 17:30 39.86371 -82.20291 40079 ft 435 kts 351°
2026-04-23 17:30 39.95363 -82.21749 40077 ft 435 kts 351°
2026-04-23 17:31 40.01373 -82.22725 40075 ft 435 kts 352°
2026-04-23 17:31 40.07374 -82.23701 40075 ft 435 kts 352°
2026-04-23 17:32 40.13363 -82.24679 40084 ft 435 kts 351°
2026-04-23 17:32 40.19378 -82.25661 40085 ft 435 kts 351°
2026-04-23 17:33 40.25412 -82.26649 40086 ft 435 kts 351°
2026-04-23 17:33 40.31414 -82.27633 40081 ft 435 kts 351°
2026-04-23 17:34 40.37381 -82.28612 40073 ft 436 kts 351°
2026-04-23 17:35 40.46408 -82.30098 40068 ft 436 kts 351°
2026-04-23 17:35 40.55168 -82.33082 40071 ft 435 kts 342°
2026-04-23 17:36 40.60926 -82.35452 40071 ft 434 kts 342°
2026-04-23 17:36 40.66696 -82.37848 40067 ft 435 kts 341°
2026-04-23 17:37 40.69593 -82.39056 39693 ft 443 kts 341°
2026-04-23 17:37 40.72538 -82.40287 39199 ft 442 kts 341°
2026-04-23 17:37 40.78290 -82.42694 37931 ft 432 kts 341°
2026-04-23 17:38 40.81132 -82.43887 37248 ft 431 kts 341°
2026-04-23 17:38 40.83982 -82.45084 36549 ft 435 kts 341°
2026-04-23 17:38 40.86881 -82.46303 35767 ft 440 kts 341°
2026-04-23 17:38 40.89784 -82.47524 34922 ft 443 kts 341°
2026-04-23 17:39 40.92704 -82.48754 34079 ft 445 kts 341°
2026-04-23 17:39 40.95672 -82.50005 33274 ft 446 kts 341°
2026-04-23 17:39 40.98614 -82.51246 32497 ft 447 kts 341°
2026-04-23 17:39 41.01589 -82.52502 31731 ft 442 kts 341°
2026-04-23 17:40 41.04459 -82.53715 31244 ft 431 kts 341°
2026-04-23 17:40 41.07332 -82.54931 31005 ft 438 kts 341°
2026-04-23 17:40 41.10260 -82.56213 30494 ft 458 kts 340°
2026-04-23 17:40 41.13325 -82.57576 29774 ft 460 kts 340°
2026-04-23 17:41 41.16316 -82.58903 29103 ft 454 kts 341°
2026-04-23 17:41 41.22248 -82.61543 27684 ft 446 kts 341°
2026-04-23 17:41 41.25178 -82.62846 26875 ft 442 kts 341°
2026-04-23 17:42 41.30646 -82.65826 26201 ft 424 kts 330°
2026-04-23 17:42 41.33297 -82.67825 25602 ft 447 kts 329°
2026-04-23 17:42 41.35954 -82.69838 24957 ft 442 kts 329°
2026-04-23 17:43 41.38617 -82.71869 24274 ft 435 kts 329°
2026-04-23 17:43 41.41192 -82.73842 23639 ft 427 kts 329°
2026-04-23 17:43 41.43747 -82.75805 23022 ft 419 kts 329°
2026-04-23 17:43 41.46225 -82.77715 22456 ft 409 kts 329°
2026-04-23 17:44 41.48660 -82.79594 21974 ft 409 kts 329°
2026-04-23 17:44 41.51162 -82.81527 21460 ft 416 kts 329°
2026-04-23 17:44 41.56164 -82.85399 20033 ft 414 kts 329°
2026-04-23 17:45 41.58612 -82.87297 19360 ft 408 kts 329°
2026-04-23 17:45 41.63348 -82.90975 19254 ft 395 kts 329°
2026-04-23 17:45 41.65781 -82.92870 19252 ft 408 kts 328°
2026-04-23 17:46 41.70256 -82.97490 18468 ft 414 kts 319°
2026-04-23 17:46 41.72445 -82.99989 17743 ft 409 kts 319°
2026-04-23 17:46 41.74575 -83.02432 17037 ft 404 kts 319°
2026-04-23 17:47 41.76685 -83.04858 16320 ft 398 kts 319°
2026-04-23 17:47 41.78719 -83.07202 15550 ft 378 kts 319°
2026-04-23 17:47 41.82653 -83.11744 14892 ft 383 kts 319°
2026-04-23 17:48 41.84678 -83.14088 14854 ft 384 kts 319°
2026-04-23 17:48 41.86708 -83.16389 14602 ft 388 kts 320°
2026-04-23 17:48 41.88781 -83.18700 13875 ft 392 kts 320°
2026-04-23 17:48 41.90847 -83.21008 13457 ft 378 kts 320°
2026-04-23 17:49 41.92833 -83.23230 13233 ft 367 kts 320°
2026-04-23 17:49 41.94793 -83.25426 13024 ft 374 kts 320°
2026-04-23 17:49 41.96795 -83.27670 12809 ft 376 kts 320°
2026-04-23 17:49 41.98891 -83.29785 12583 ft 372 kts 330°
2026-04-23 17:50 42.01273 -83.31105 12377 ft 373 kts 346°
2026-04-23 17:50 42.06374 -83.30972 12014 ft 373 kts 17°
2026-04-23 17:50 42.08724 -83.29549 12014 ft 373 kts 28°
2026-04-23 17:51 42.11021 -83.27817 12011 ft 377 kts 28°
2026-04-23 17:51 42.13287 -83.26093 12009 ft 376 kts 28°
2026-04-23 17:51 42.17825 -83.22584 11996 ft 376 kts 29°
2026-04-23 17:52 42.20121 -83.20793 11998 ft 376 kts 29°
2026-04-23 17:52 42.24672 -83.17307 11988 ft 376 kts 27°
2026-04-23 17:52 42.26946 -83.15638 11978 ft 365 kts 27°
2026-04-23 17:53 42.30964 -83.12678 11963 ft 295 kts 27°
2026-04-23 17:53 42.32671 -83.11422 11981 ft 268 kts 26°
2026-04-23 17:53 42.34252 -83.10259 12016 ft 252 kts 26°
2026-04-23 17:54 42.35778 -83.09136 11566 ft 249 kts 26°
2026-04-23 17:54 42.37280 -83.08034 11187 ft 242 kts 26°
2026-04-23 17:54 42.40206 -83.05888 10165 ft 241 kts 26°
2026-04-23 17:55 42.43113 -83.03755 9162 ft 237 kts 26°
2026-04-23 17:55 42.44555 -83.02699 8658 ft 236 kts 26°
2026-04-23 17:55 42.46001 -83.01640 8119 ft 236 kts 26°
2026-04-23 17:56 42.47436 -83.00589 7602 ft 236 kts 26°
2026-04-23 17:56 42.50323 -82.98476 6575 ft 235 kts 27°
2026-04-23 17:56 42.51737 -82.97441 6085 ft 233 kts 27°
2026-04-23 17:57 42.53161 -82.96418 5539 ft 231 kts 21°
2026-04-23 17:57 42.54720 -82.96074 5063 ft 227 kts 349°
2026-04-23 17:57 42.56908 -82.98674 4465 ft 216 kts 281°
2026-04-23 17:58 42.56784 -83.00661 4401 ft 217 kts 246°
2026-04-23 17:58 42.55828 -83.02233 4349 ft 225 kts 214°
2026-04-23 17:58 42.54489 -83.03343 4298 ft 224 kts 213°
2026-04-23 17:58 42.53198 -83.04557 4236 ft 223 kts 216°
2026-04-23 17:59 42.51965 -83.05805 4179 ft 223 kts 217°
2026-04-23 17:59 42.50741 -83.07092 4122 ft 223 kts 218°
2026-04-23 17:59 42.49513 -83.08423 4084 ft 223 kts 218°
2026-04-23 17:59 42.48314 -83.09741 4066 ft 223 kts 218°
2026-04-23 18:00 42.47110 -83.11073 4046 ft 223 kts 218°
2026-04-23 18:00 42.45909 -83.12405 4028 ft 223 kts 219°
2026-04-23 18:00 42.44706 -83.13745 4001 ft 223 kts 218°
2026-04-23 18:00 42.43519 -83.15072 3997 ft 222 kts 219°
2026-04-23 18:01 42.42316 -83.16413 3999 ft 224 kts 219°
2026-04-23 18:01 42.41131 -83.17742 3998 ft 224 kts 219°
2026-04-23 18:01 42.39924 -83.19091 3999 ft 224 kts 219°
2026-04-23 18:01 42.38731 -83.20425 3999 ft 224 kts 218°
2026-04-23 18:02 42.37521 -83.21774 4000 ft 224 kts 218°
2026-04-23 18:02 42.36272 -83.22976 3821 ft 221 kts 207°
2026-04-23 18:02 42.34927 -83.23918 3526 ft 215 kts 206°
2026-04-23 18:02 42.33627 -83.24861 3259 ft 208 kts 207°
2026-04-23 18:03 42.32344 -83.25794 2993 ft 207 kts 207°
2026-04-23 18:03 42.31146 -83.26675 2738 ft 189 kts 207°
2026-04-23 18:03 42.30037 -83.27489 2461 ft 173 kts 207°
2026-04-23 18:03 42.29026 -83.28235 2254 ft 156 kts 206°
2026-04-23 18:04 42.28108 -83.28913 2014 ft 144 kts 206°
2026-04-23 18:04 42.27258 -83.29536 1821 ft 139 kts 205°
2026-04-23 18:04 42.26399 -83.30164 1646 ft 138 kts 206°
2026-04-23 18:04 42.25577 -83.30767 1458 ft 133 kts 206°
2026-04-23 18:05 42.24771 -83.31354 1297 ft 132 kts 206°
2026-04-23 18:05 42.23962 -83.31937 1131 ft 131 kts 208°
2026-04-23 18:05 42.23164 -83.32530 954 ft 129 kts 207°
2026-04-23 18:05 42.22372 -83.33109 765 ft 130 kts 208°
2026-04-23 18:06 42.21582 -83.33693 639 ft 125 kts 208°
2026-04-23 18:06 42.20909 -83.34187 638 ft 85 kts 209°
2026-04-23 18:06 42.20535 -83.34464 638 ft 49 kts 209°
2026-04-23 18:06 42.20262 -83.34667 638 ft 30 kts 209°
2026-04-23 18:07 42.20186 -83.34818 638 ft 19 kts 268°
2026-04-23 18:07 42.20182 -83.35007 638 ft 20 kts 268°
2026-04-23 18:07 42.20177 -83.35199 638 ft 20 kts 268°
2026-04-23 18:07 42.20175 -83.35382 641 ft 19 kts 269°
2026-04-23 18:08 42.20171 -83.35568 641 ft 20 kts 269°
2026-04-23 18:08 42.20168 -83.35757 641 ft 20 kts 268°
2026-04-23 18:08 42.20164 -83.35950 641 ft 20 kts 269°
2026-04-23 18:08 42.20163 -83.36150 641 ft 21 kts 275°
2026-04-23 18:09 42.20187 -83.36342 641 ft 15 kts 281°
2026-04-23 18:09 42.20256 -83.36404 641 ft 13 kts
2026-04-23 18:09 42.20351 -83.36351 641 ft 17 kts 28°
2026-04-23 18:09 42.20485 -83.36252 644 ft 25 kts 29°
2026-04-23 18:10 42.20644 -83.36134 644 ft 26 kts 29°
2026-04-23 18:10 42.20805 -83.36018 644 ft 26 kts 28°
2026-04-23 18:10 42.20967 -83.35897 644 ft 26 kts 29°
2026-04-23 18:10 42.21132 -83.35776 644 ft 26 kts 29°
2026-04-23 18:11 42.21223 -83.35708 644 ft 12 kts 29°
2026-04-23 18:11 42.21236 -83.35658 644 ft 6 kts 120°
2026-04-23 18:11 42.21211 -83.35599 644 ft 5 kts 119°
2026-04-23 18:11 42.21208 -83.35592 644 ft 0 kts 119°